Tracking 22879 objects as of 22-Apr-2021
HD Live streaming from Space Station
objects crossing your sky now

BRIO

Track BRIO now!
10-day predictions


NORAD ID: 43813
Int'l Code: 2018-099BH
Perigee: 576.7 km
Apogee: 594.2 km
Inclination: 97.7 °
Period: 96.2 minutes
Semi major axis: 6956 km
RCS: Unknown
Launch date: December 3, 2018
Source: United States (US)
Launch site: AIR FORCE WESTERN TEST RANGE (AFWTR)
aabbcc
Your satellite tracking list
Your tracking list is empty




NASA's NSSDC Master Catalog

Two Line Element Set (TLE):
1 43813U 18099BH  21112.15988645  .00001343  00000-0  12375-3 0  9991
2 43813  97.6804 185.6001 0012555 222.1463 137.8794 14.96311742129799
Source of the keplerian elements: AFSPC